Station 46006 (LLNR 510) - SOUTHEAST PAPA - 600NM West of Eureka, CA Image indicating link to RSS feed of recent meteorological observations for station 46006


Conditions at 46006 as of
(3:10 pm PDT)
2210 GMT on 07/13/2024:
     

Click on the graph icon in the table below to see a time series plot of the last five days of that observation.

5-day plot - Wind Direction Wind Direction (WDIR):WNW ( 300 deg true )
5-day plot - Wind Speed Wind Speed (WSPD): 7.8 kts
5-day plot - Wind Gust Wind Gust (GST): 9.7 kts
5-day plot - Atmospheric Pressure Atmospheric Pressure (PRES):30.39 in
5-day plot - Air Temperature Air Temperature (ATMP): 65.7 °F
5-day plot - Water Temperature Water Temperature (WTMP): 67.3 °F
5-day plot - Dew Point Dew Point (DEWP): 61.2 °F
5-day plot - Wind Speed at 10 Meters Wind Speed at 10 meters (WSPD10M): 7.8 kts
5-day plot - Wind Speed at 20 Meters Wind Speed at 20 meters (WSPD20M): 7.8 kts
5-day plot -  Wind Speed, Wind Gust and Atmospheric Pressure Combined plot of Wind Speed, Gust, and Air Pressure
Supplemental Measurements
Highest 1-minute Wind Speed
Time (PDT)5-day plot - 1-Minute Wind Speed WSPD 5-day plot - 1-Minute Wind Direction WDIR
3:02 pm 9.7 kts-
Previous observations
TIME
(PDT)
5-day plot - Wind Direction
WDIR
 
5-day plot - Wind Speed
WSPD
kts
5-day plot - Wind Gust
GST
kts
5-day plot - Wave Height
WVHT
ft
5-day plot - Dominant Wave Period
DPD
sec
5-day plot - Average Wave Period
APD
sec
5-day plot - Mean Wave Direction
MWD
 
5-day plot - Atmospheric Pressure
PRES
in
5-day plot - Pressure Tendency
PTDY
in
5-day plot - Air Temperature
ATMP
°F
5-day plot - Water Temperature
WTMP
°F
5-day plot - Dew Point
DEWP
°F
5-day plot - Salinity
SAL
psu
5-day plot - Visibility
VIS
nmi
5-day plot - Tide (above MLLW)
TIDE
ft
2024-07-13 03:00 pmWNW 7.8 9.7----30.39-0.02 65.7 67.5 61.0---
2024-07-13 02:50 pmWNW 5.8 7.8 3.6 76.6ENE30.40- 65.5 67.5 60.6---
2024-07-13 02:40 pmWNW 5.8 7.8----30.40- 65.5 67.5 60.8---
2024-07-13 02:30 pmWNW 5.8 7.8----30.40- 65.1 67.3 60.3---
2024-07-13 02:20 pmWNW 5.8 7.8 3.6 86.5ENE30.40- 65.1 67.1 60.3---
2024-07-13 02:10 pm NW 5.8 7.8 3.6-6.5ENE30.40- 65.1 67.1 60.4---
2024-07-13 02:00 pm NW 5.8 7.8----30.40-0.01 64.9 66.9 60.1---
2024-07-13 01:50 pm NW 5.8 7.8 3.6 86.8ENE30.40- 64.9 66.7 60.1---
2024-07-13 01:40 pmWNW 3.9 5.8----30.40- 64.9 66.9 59.9---
2024-07-13 01:30 pm NW 3.9 7.8----30.40- 64.9 66.7 60.1---
2024-07-13 01:20 pm NW 5.8 7.8 3.6 76.7 NE30.40- 64.6 66.7 59.7---
2024-07-13 01:10 pm NW 5.8 7.8----30.40- 64.8 66.7 60.1---
2024-07-13 01:00 pm NW 5.8 7.8----30.40+0.00 64.4 66.6 59.5---
2024-07-13 12:50 pm NW 5.8 7.8 3.6 86.5 E30.40- 64.4 66.7 59.5---
2024-07-13 12:40 pmWNW 5.8 7.8----30.40- 64.2 66.7 59.4---
2024-07-13 12:30 pm NW 5.8 5.8----30.40- 64.2 66.6 59.4---
2024-07-13 12:20 pmWNW 5.8 7.8 3.6 86.5ENE30.40- 64.2 66.4 59.4---
2024-07-13 12:10 pmWNW 3.9 5.8 3.6-6.5ENE30.40- 64.0 66.4 59.2---
2024-07-13 12:00 pm NW 3.9 7.8----30.40+0.00 63.9 66.2 58.8---
2024-07-13 11:50 am NW 3.9 7.8 3.9 76.4ENE30.41- 63.9 66.4 58.8---
2024-07-13 11:40 am NW 5.8 7.8----30.41- 63.7 66.2 58.8---
2024-07-13 11:30 am NW 3.9 5.8----30.41- 63.7 66.2 58.8---
2024-07-13 11:20 am NW 3.9 7.8 3.9 86.3ENE30.41- 63.5 66.2 58.6---
2024-07-13 11:10 am NW 3.9 5.8 3.9-6.3ENE30.41- 63.5 66.2 58.6---
2024-07-13 11:00 am NW 3.9 5.8----30.41+0.00 63.3 66.2 58.5---
2024-07-13 10:50 am NW 1.9 3.9 3.9 86.3ENE30.41- 63.5 66.2 58.6---
2024-07-13 10:40 am NW 1.9 3.9----30.41- 63.5 66.2 58.5---
2024-07-13 10:30 am N 1.9 3.9----30.40- 63.5 66.2 58.5---
2024-07-13 10:20 am NW 1.9 5.8 3.6 86.2 E30.40- 63.3 66.2 58.3---
2024-07-13 10:10 amNNW 1.9 5.8 3.6-6.2 E30.40- 64.0 66.2 58.5---
2024-07-13 10:00 am- 0.0 1.9----30.41+0.00 63.9 66.0 58.3---
2024-07-13 09:50 am- 0.0 1.9 3.9 86.2ENE30.41- 63.5 66.0 58.1---
2024-07-13 09:40 am NW 1.9 1.9----30.41- 63.5 66.0 57.9---
2024-07-13 09:30 am- 0.0 1.9----30.41- 63.9 66.0 58.1---
2024-07-13 09:20 am- 0.0 1.9 3.9 76.4ENE30.41- 63.9 66.0 58.1---
2024-07-13 09:10 amNNE 1.9 1.9 3.9-6.4ENE30.41- 63.5 66.0 57.9---
2024-07-13 09:00 amNNE 1.9 3.9----30.40+0.01 63.5 66.0 58.1---
2024-07-13 08:50 amNNE 1.9 3.9 3.9 86.2ENE30.40- 63.3 66.0 57.9---
2024-07-13 08:40 amNNE 1.9 3.9----30.40- 63.1 66.0 57.9---
2024-07-13 08:30 amNNE 1.9 3.9----30.40- 63.1 66.0 58.1---
2024-07-13 08:20 amNNE 3.9 5.8 3.9 86.5ENE30.40- 63.0 66.0 57.9---
2024-07-13 08:10 amNNE 3.9 5.8 3.9-6.5ENE30.40- 63.0 66.0 58.1---
2024-07-13 08:00 amNNE 3.9 5.8----30.40+0.01 62.8 66.0 57.9---
2024-07-13 07:50 amNNE 3.9 5.8 3.9 76.3ENE30.40- 62.8 66.0 57.9---
2024-07-13 07:40 amNNE 3.9 5.8 3.9-6.3ENE30.40- 62.8 66.0 57.9---
2024-07-13 07:30 am N 3.9 5.8----30.40- 62.8 66.0 58.1---
2024-07-13 07:20 amNNE 3.9 5.8 3.9 76.2ENE30.40- 62.8 66.0 57.9---
2024-07-13 07:10 amNNE 5.8 7.8 3.9-6.2ENE30.40- 62.8 66.0 58.1---
2024-07-13 07:00 amNNE 3.9 5.8----30.40+0.00 62.8 66.0 58.1---
2024-07-13 06:50 amNNE 3.9 5.8 3.6 75.9ENE30.40- 62.8 66.2 57.9---
2024-07-13 06:40 amNNE 5.8 7.8----30.40- 62.8 66.2 57.9---
2024-07-13 06:30 amNNE 3.9 7.8----30.40- 62.8 66.2 57.9---
2024-07-13 06:20 amNNE 5.8 7.8 3.6 75.8ENE30.40- 62.8 66.2 57.7---
2024-07-13 06:10 amNNE 5.8 7.8 3.6-5.8ENE30.40- 62.6 66.2 57.6---
2024-07-13 06:00 amNNE 3.9 5.8----30.40-0.01 62.8 66.2 57.7---
2024-07-13 05:50 amNNE 3.9 5.8 3.9 76.1ENE30.40- 62.8 66.2 57.7---
2024-07-13 05:40 amNNE 3.9 5.8----30.39- 62.6 66.2 57.6---
2024-07-13 05:30 amNNE 3.9 5.8----30.39- 62.6 66.2 57.4---
2024-07-13 05:20 am NE 3.9 5.8 3.9 156.3SSW30.39- 62.6 66.2 57.6---
2024-07-13 05:10 amNNE 3.9 5.8 3.9-6.3SSW30.39- 62.8 66.2 57.6---
2024-07-13 05:00 amNNE 3.9 7.8----30.39-0.03 62.8 66.2 57.6---
2024-07-13 04:50 am NE 3.9 5.8 3.6 65.9 E30.40- 62.6 66.2 57.2---
2024-07-13 04:40 am NE 3.9 7.8----30.40- 62.6 66.2 57.2---
2024-07-13 04:30 amNNE 5.8 7.8----30.40- 62.6 66.2 57.2---
2024-07-13 04:20 amNNE 3.9 7.8 3.6 66.0ENE30.40- 62.6 66.2 57.4---
2024-07-13 04:10 am NE 5.8 7.8 3.6-6.0ENE30.40- 62.4 66.2 57.2---
2024-07-13 04:00 am NE 5.8 7.8----30.40-0.02 62.4 66.2 57.4---
2024-07-13 03:50 am NE 5.8 7.8 3.6 76.0ENE30.40- 62.4 66.2 57.4---
2024-07-13 03:40 am NE 5.8 9.7----30.40- 62.6 66.2 57.7---
2024-07-13 03:30 amNNE 5.8 9.7----30.40- 62.6 66.2 57.7---
2024-07-13 03:20 amNNE 5.8 9.7 3.6 66.0ENE30.41- 62.6 66.2 57.6---
2024-07-13 03:10 am NE 7.8 9.7 3.6-6.0ENE30.41- 62.6 66.2 57.7---
2024-07-13 03:00 amNNE 7.8 9.7----30.41-0.02 62.8 66.2 57.7---
2024-07-13 02:50 amNNE 7.8 9.7 3.6 76.0ENE30.41- 62.8 66.2 57.6---
2024-07-13 02:40 am N 5.8 9.7----30.41- 62.8 66.2 57.4---
2024-07-13 02:30 am N 7.8 11.7----30.41- 62.6 66.2 57.2---
2024-07-13 02:20 amNNE 7.8 9.7 3.6 146.1 S30.42- 62.8 66.2 57.6---
2024-07-13 02:10 am N 5.8 9.7 3.6-6.1 S30.42- 62.8 66.2 57.2---
2024-07-13 02:00 am N 5.8 9.7----30.42-0.01 62.8 66.2 57.2---
2024-07-13 01:50 amNNE 7.8 11.7 3.6 76.1ENE30.42- 63.0 66.2 57.4---
2024-07-13 01:40 amNNE 3.9 7.8----30.42- 62.6 66.2 57.0---
2024-07-13 01:30 amNNE 7.8 11.7----30.42- 62.4 66.2 56.7---
2024-07-13 01:20 am NE 7.8 11.7 3.6 76.2ENE30.42- 63.0 66.2 57.2---
2024-07-13 01:10 amNNE 5.8 9.7 3.6-6.2ENE30.42- 62.8 66.2 57.0---
2024-07-13 01:00 am NE 5.8 9.7----30.42+0.00 62.8 66.2 56.8---
2024-07-13 12:50 am NE 7.8 9.7 3.3 86.0ENE30.42- 63.0 66.2 57.0---
2024-07-13 12:40 amNNE 5.8 9.7----30.42- 62.8 66.2 56.3---
2024-07-13 12:30 amNNE 7.8 9.7----30.42- 63.0 66.2 56.7---
2024-07-13 12:20 am NE 7.8 11.7 3.6 66.1ENE30.42- 63.1 66.2 56.8---
2024-07-13 12:10 amNNE 7.8 9.7 3.6-6.1ENE30.43- 63.1 66.2 56.7---
2024-07-13 12:00 am NE 5.8 9.7----30.43+0.00 63.0 66.2 56.7---
2024-07-12 11:50 pm NE 5.8 9.7 3.6 156.2SSW30.43- 63.0 66.2 56.5---
2024-07-12 11:40 pm NE 7.8 11.7----30.43- 63.0 66.2 56.3---
2024-07-12 11:30 pm NE 7.8 11.7----30.43- 63.1 66.2 56.7---
2024-07-12 11:20 pm NE 7.8 9.7 3.6 76.3ENE30.43- 63.1 66.0 56.8---
2024-07-12 11:10 pm NE 7.8 11.7 3.6-6.3ENE30.44- 63.0 66.2 56.5---
2024-07-12 11:00 pmNNE 7.8 11.7----30.44+0.01 63.3 66.2 57.0---
2024-07-12 10:50 pmNNE 7.8 9.7 3.6 76.0 E30.43- 63.3 66.2 57.0---
2024-07-12 10:40 pmNNE 7.8 9.7----30.43- 63.3 66.2 56.7---
2024-07-12 10:30 pmNNE 7.8 9.7----30.43- 63.3 66.2 56.7---
2024-07-12 10:20 pmNNE 7.8 11.7 3.6 86.2ENE30.43- 63.3 66.2 56.5---
2024-07-12 10:10 pmNNE 7.8 11.7 3.6-6.2ENE30.43- 63.3 66.2 56.7---
2024-07-12 10:00 pmNNE 7.8 11.7----30.43+0.00 63.3 66.2 56.8---
2024-07-12 09:50 pmNNE 7.8 11.7 3.6 76.1 E30.43- 63.1 66.2 56.5---
2024-07-12 09:40 pmNNE 9.7 11.7----30.42- 63.3 66.2 56.7---
2024-07-12 09:30 pmNNE 9.7 11.7----30.42- 63.3 66.2 56.8---
2024-07-12 09:20 pmNNE 9.7 11.7 3.3 76.0ENE30.42- 63.3 66.2 56.7---
2024-07-12 09:10 pmNNE 9.7 11.7 3.3-6.0ENE30.42- 63.3 66.2 56.7---
2024-07-12 09:00 pmNNE 9.7 11.7----30.42+0.00 63.5 66.2 56.8---
2024-07-12 08:50 pmNNE 9.7 11.7 3.6 136.3 SE30.42- 63.5 66.2 56.7---
2024-07-12 08:40 pm N 7.8 9.7----30.42- 63.5 66.2 56.7---
2024-07-12 08:30 pm N 7.8 9.7----30.42- 63.7 66.2 56.5---
2024-07-12 08:20 pm N 7.8 9.7 3.6 66.3ENE30.42- 63.7 66.4 56.5---
2024-07-12 08:10 pm N 7.8 9.7 3.6-6.3ENE30.42- 63.7 66.4 56.7---
2024-07-12 08:00 pm N 5.8 9.7----30.42-0.01 63.7 66.4 56.8---
2024-07-12 07:50 pm N 7.8 11.7 3.3 76.2ENE30.42- 63.5 66.4 56.3---
2024-07-12 07:40 pm N 7.8 9.7----30.42- 63.5 66.4 56.3---
2024-07-12 07:30 pm N 7.8 9.7----30.42- 63.5 66.4 56.5---
2024-07-12 07:20 pm N 7.8 11.7 3.6 66.3ENE30.42- 63.5 66.4 56.5---
2024-07-12 07:10 pm N 7.8 9.7 3.6-6.3ENE30.42- 63.7 66.4 56.8---
2024-07-12 07:00 pm N 7.8 9.7----30.42-0.03 63.7 66.4 56.8---
2024-07-12 06:50 pm N 7.8 9.7 3.3 76.3ENE30.42- 63.7 66.4 56.7---
2024-07-12 06:40 pm N 5.8 9.7 3.3-6.3ENE30.42- 63.7 66.4 56.7---
2024-07-12 06:30 pm N 5.8 7.8----30.42- 63.7 66.4 56.5---
2024-07-12 06:20 pm N 5.8 9.7 3.3 66.0ENE30.42- 63.7 66.4 56.3---
2024-07-12 06:10 pm N 5.8 7.8 3.3-6.0ENE30.42- 63.7 66.4 56.5---
2024-07-12 06:00 pm N 5.8 7.8----30.42-0.03 63.7 66.6 56.5---
2024-07-12 05:50 pm N 5.8 9.7 3.3 136.4SSE30.42- 63.9 66.6 56.7---
2024-07-12 05:40 pmNNE 5.8 9.7----30.43- 63.9 66.4 56.7---
2024-07-12 05:30 pm N 5.8 9.7----30.43- 63.9 66.4 56.3---
2024-07-12 05:20 pm N 5.8 9.7 3.3 156.3 S30.43- 63.7 66.4 56.1---
2024-07-12 05:10 pm N 5.8 9.7 3.3-6.3 S30.43- 63.9 66.4 56.7---
2024-07-12 05:00 pm N 5.8 7.8----30.44-0.02 63.9 66.4 56.5---
2024-07-12 04:50 pm N 5.8 9.7 3.0 136.1SSE30.44- 63.9 66.4 56.5---
2024-07-12 04:40 pm N 7.8 7.8----30.44- 63.9 66.4 56.5---
2024-07-12 04:20 pm N 5.8 7.8 3.3 136.0SSE30.44- 63.9 66.4 56.1---
2024-07-12 04:10 pmNNE 5.8 7.8----30.45- 63.9 66.4 56.1---
2024-07-12 04:00 pmNNE 5.8 7.8----30.45-0.01 63.9 66.4 55.9---
2024-07-12 03:50 pm N 5.8 7.8 3.0 145.9 SE30.45- 63.9 66.4 55.6---
2024-07-12 03:40 pm N 5.8 7.8----30.45- 63.9 66.4 55.6---
2024-07-12 03:30 pm N 5.8 7.8----30.45- 63.9 66.4 55.8---
2024-07-12 03:20 pmNNE 5.8 7.8 3.0 136.1SSE30.45- 63.9 66.4 55.8---
2024-07-12 03:10 pm N 5.8 7.8 3.0-6.1SSE30.45- 63.9 66.2 55.6---
2024-07-12 03:00 pm N 5.8 7.8----30.45-0.01 63.9 66.2 55.6---
2024-07-12 02:50 pmNNE 5.8 7.8 3.0 155.9SSW30.45- 63.7 66.2 55.2---

Detailed Wave Summary
for 46006 as of (2:40 pm PDT)
2140 GMT on 07/13/2024:

These wave data are displayed in rounded times.

     

Click on the graph icon in the table below to see a time series plot of the last five days of that observation.

5-day plot - Significant Wave Height Significant Wave Height (WVHT): 3.6 ft
5-day plot - Swell Height Swell Height (SwH): 3.6 ft
5-day plot - Swell Period Swell Period (SwP): 7.1 sec
5-day plot - Swell Direction Swell Direction (SwD):ENE
5-day plot - Wind Wave Height Wind Wave Height (WWH): 0.7 ft
5-day plot - Wind Wave Period Wind Wave Period (WWP): 3.7 sec
5-day plot - Wind Wave Direction Wind Wave Direction (WWD):ENE
5-day plot - Wave Steepness Wave Steepness (STEEPNESS): AVERAGE
5-day plot - Average Wave Period Average Wave Period (APD): 6.6 sec
Previous observations
TIME
(PDT)
5-day plot - Wave Height
WVHT
ft
5-day plot - Swell Height
SwH
ft
5-day plot - Swell Period
SwP
sec
5-day plot - Swell Direction
SwD
 
5-day plot - Wind Wave Height
WWH
ft
5-day plot - Wind Wave Period
WWP
sec
5-day plot - Wind Wave Direction
WWD
 
5-day plot - Wave Steepness
STEEPNESS
 
5-day plot - Average Wave Period
APD
sec
2024-07-13 02:10 pm 3.6 3.6 7.7ENE 0.7 3.8 ENE AVERAGE 6.5
2024-07-13 01:40 pm 3.6 3.6 7.7ENE 0.7 4.0 NE AVERAGE 6.8
2024-07-13 01:10 pm 3.6 3.6 6.7 NE 0.7 3.6 NE STEEP 6.7
2024-07-13 12:40 pm 3.6 3.6 8.3 E 0.7 3.6 NE AVERAGE 6.5
2024-07-13 12:10 pm 3.6 3.6 8.3ENE 0.7 3.6 ENE AVERAGE 6.5
2024-07-13 11:40 am 3.9 3.9 6.7ENE 1.0 3.6 ENE STEEP 6.4
2024-07-13 11:10 am 3.9 3.6 7.7ENE 1.0 3.7 E AVERAGE 6.3
2024-07-13 10:40 am 3.9 3.6 7.7ENE 1.0 3.7 E AVERAGE 6.3
2024-07-13 10:10 am 3.6 3.6 7.7 E 1.0 3.7 E AVERAGE 6.2
2024-07-13 09:40 am 3.9 3.9 7.7ENE 1.0 4.0 E AVERAGE 6.2
2024-07-13 09:10 am 3.9 3.6 7.1ENE 1.0 3.8 ESE AVERAGE 6.4
2024-07-13 08:40 am 3.9 3.6 7.7ENE 1.0 3.7 E AVERAGE 6.2
2024-07-13 08:10 am 3.9 3.9 7.7ENE 1.0 3.8 E AVERAGE 6.5
2024-07-13 07:40 am 3.9 3.9 7.1ENE 1.0 3.6 E AVERAGE 6.3
2024-07-13 07:10 am 3.9 3.9 7.1ENE 1.0 3.7 E AVERAGE 6.2
2024-07-13 06:40 am 3.6 3.3 7.1ENE 1.0 3.8 E AVERAGE 5.9
2024-07-13 06:10 am 3.6 3.6 7.1ENE 1.0 3.8 E AVERAGE 5.8
2024-07-13 05:40 am 3.9 3.6 7.1ENE 1.3 3.4 E AVERAGE 6.1
2024-07-13 05:10 am 3.9 3.6 14.8SSW 1.0 3.2 E SWELL 6.3
2024-07-13 04:40 am 3.6 3.3 6.2 E 1.0 3.8 E STEEP 5.9
2024-07-13 04:10 am 3.6 3.3 6.2ENE 1.0 4.0 ENE STEEP 6.0
2024-07-13 03:40 am 3.6 3.3 7.1ENE 1.0 3.6 ENE AVERAGE 6.0
2024-07-13 03:10 am 3.6 3.3 6.2ENE 1.0 3.8 ENE STEEP 6.0
2024-07-13 02:40 am 3.6 3.3 6.7ENE 1.0 4.0 ENE STEEP 6.0
2024-07-13 02:10 am 3.6 3.3 13.8 S 1.0 3.8 ENE SWELL 6.1
2024-07-13 01:40 am 3.6 3.6 6.7ENE 1.0 4.0 ENE STEEP 6.1
2024-07-13 01:10 am 3.6 3.6 7.1ENE 1.0 4.0 ENE AVERAGE 6.2
2024-07-13 12:40 am 3.3 3.3 7.7ENE 1.0 3.7 E AVERAGE 6.0
2024-07-13 12:10 am 3.6 3.3 6.2ENE 1.0 3.7 ENE STEEP 6.1
2024-07-12 11:40 pm 3.6 3.6 14.8SSW 1.0 3.8 ENE SWELL 6.2
2024-07-12 11:10 pm 3.6 3.6 6.7ENE 1.0 4.0 ENE STEEP 6.3
2024-07-12 10:40 pm 3.6 3.3 7.1 E 1.0 3.8 E AVERAGE 6.0
2024-07-12 10:10 pm 3.6 3.3 7.7ENE 1.0 3.6 ENE AVERAGE 6.2
2024-07-12 09:40 pm 3.6 3.6 7.1 E 1.3 3.4 ENE AVERAGE 6.1
2024-07-12 09:10 pm 3.3 3.3 7.1ENE 1.0 4.2 ENE AVERAGE 6.0
2024-07-12 08:40 pm 3.6 3.3 12.9 SE 1.0 4.0 ENE SWELL 6.3
2024-07-12 08:10 pm 3.6 3.3 6.2ENE 1.0 3.8 ENE STEEP 6.3
2024-07-12 07:40 pm 3.3 3.3 6.7ENE 1.0 3.4 ENE AVERAGE 6.2
2024-07-12 07:10 pm 3.6 3.3 6.2ENE 1.0 4.0 ENE STEEP 6.3
2024-07-12 06:40 pm 3.3 3.3 6.7ENE 0.7 3.7 E AVERAGE 6.3
2024-07-12 06:10 pm 3.3 3.3 6.2ENE 1.0 3.4 ENE STEEP 6.0
2024-07-12 05:40 pm 3.3 3.3 12.9SSE 1.0 3.7 E SWELL 6.4
2024-07-12 05:10 pm 3.3 3.0 14.8 S 1.0 3.8 E SWELL 6.3
2024-07-12 04:40 pm 3.0 3.0 12.9SSE 1.0 3.3 E SWELL 6.1
2024-07-12 04:10 pm 3.3 3.0 12.9SSE 1.0 3.8 E SWELL 6.0
2024-07-12 03:40 pm 3.0 2.6 13.8 SE 1.0 3.7 E SWELL 5.9
2024-07-12 03:10 pm 3.0 3.0 12.9SSE 1.0 3.6 ENE SWELL 6.1

Plot of wave energy versus frequency (and period)